User: anonymous   Login
Location: Wanzleben
(52.0609°N, 11.4408°E)
Time: 23:07:15
(UTC+00:00)
Language:

SPOT 3 Rocket - Orbit

View from above orbital plane
View from above orbital plane
View from above satellite
View from above satellite

Ground track
Ground track

The orbit data is extracted from the following two-line orbital elements,

1 22830U 93061H   20331.39831403  .00000007  00000-0  19700-4 0  9992
2 22830  98.7450  21.9284 0010595 202.3491 157.7231 14.31460576418249
Epoch (UTC): 26 November 2020 09:33:34
Eccentricity: 0.0010595
inclination: 98.7450°
perigee height: 779 km
apogee height: 794 km
right ascension of ascending node: 21.9284°
argument of perigee: 202.3491°
revolutions per day: 14.31460576
mean anomaly at epoch: 157.7231°
orbit number at epoch: 41824

The dashed part of the orbit path shows where the satellite is in the earth's shadow,  

DLR